Regional Weather Roundup
Issued by NWS

Home | Current Version | Previous Version | Graphics & Text | Print | Product List | Glossary On
Versions: 1 2 3 4 5 6 7 8 9 10 11 12 13 14 15 16 17 18 19 20 21 22 23 24 25 26 27 28 29 30 31 32 33 34 35 36 37 38 39 40 41 42 43 44 45 46 47 48 49 50
000
ASUS43 KIND 270909
RWRIN

WEATHER ROUNDUP FOR INDIANA
NATIONAL WEATHER SERVICE INDIANAPOLIS IN
500 AM EDT THU JUL 27 2017

NOTE: "FAIR" INDICATES FEW OR NO CLOUDS BELOW 12,000 FEET WITH NO
SIGNIFICANT WEATHER AND/OR OBSTRUCTIONS TO VISIBILITY.

* - STATION DOES NOT REPORT WEATHER SUCH AS PRECIPITATION OR FOG.

+ - STATION NOT QUALITY CONTROLLED BY THE NATIONAL WEATHER SERVICE.
    USE DATA WITH CAUTION...ESPECIALLY DEWPOINT AND RELATIVE
    HUMIDITY OBSERVATIONS.

INZ001>003-010>013-019-020-271000-
NORTHWEST INDIANA

CITY           SKY/WX    TMP DP  RH WIND       PRES   REMARKS
GARY /AIRPORT/ CLOUDY    74  73  99 CALM      29.91S FOG
KNOX *+        CLOUDY    70  70 100 S5        29.91F
LA PORTE +     CLOUDY    71  69  93 CALM      29.92F
MICHIGAN CITY+ CLOUDY    72  70  94 CALM      29.92S
MONTICELLO +   CLOUDY    71  70  96 CALM      29.92F
RENSSELAER +   CLOUDY    70  68  94 CALM      29.92F
VALPARAISO     CLOUDY    73  72  96 S3        29.92F

$$

LMZ046-743>745-271000-
SOUTHERN LAKE MICHIGAN

STATION/POSITION TIME  TEMP    WIND        PRES    WAVE
                       AIR SEA DIR/SP/G            HT
                 (UTC) (F)     (DEG/KT/KT) (MB)    (FT)
BURNS HARBOR     0840   72     190/  4/  7 1013.2S
MICHIGAN CITY    0840   74     150/  5/  6   N/A
5NW MICH CITY    0900   74 74  180/  6/  8   N/A     0

$$

INZ004-005-014>016-021>024-271000-
NORTH CENTRAL INDIANA

CITY           SKY/WX    TMP DP  RH WIND       PRES   REMARKS
GOSHEN         PTCLDY    72  65  78 SE6       29.93F
LOGANSPORT +   CLOUDY    70  70 100 SE3       29.94S FOG
PERU/GRISSOM   MOCLDY    71  71 100 S6        29.93F
ROCHESTER +    DRIZZLE   72  72 100 E5        29.94S
SOUTH BEND     CLOUDY    73  67  81 SE6       29.92F
WARSAW +       RAIN      70  68  94 CALM      29.94F

$$

INZ006>009-017-018-025>027-271000-
NORTHEAST INDIANA

CITY           SKY/WX    TMP DP  RH WIND       PRES   REMARKS
AUBURN +       CLOUDY    68  64  88 CALM      29.97S
FORT WAYNE     CLOUDY    71  67  87 CALM      29.97R
HUNTINGTON +   RAIN      70  69  95 CALM      29.97R
KENDALLVILLE + CLOUDY    68  67  96 S3        29.96F

$$

INZ028-029-035-036-043>045-051>053-271000-
WEST CENTRAL INDIANA

CITY           SKY/WX    TMP DP  RH WIND       PRES   REMARKS
GREENCASTLE +  CLOUDY    72  72 100 CALM      29.96F FOG
LAFAYETTE      CLOUDY    72  71  97 CALM      29.92F
TERRE HAUTE    CLOUDY    74  71  91 W8        29.95S

$$

INZ030>032-037>040-046>048-054>057-064-065-271000-
CENTRAL INDIANA

CITY           SKY/WX    TMP DP  RH WIND       PRES   REMARKS
CP ATTERBURY + MOCLDY    73  70  88 W5        29.95F
FRANKFORT +    CLOUDY    73  72  96 CALM      29.96F FOG
GREENWOOD *+   MOCLDY   N/A N/A N/A W5        29.96F
INDIANAPOLIS   CLOUDY    75  72  90 W8        29.94F
-EAGLE CREEK   CLOUDY    75  71  87 CALM      29.94F
KOKOMO +       CLOUDY    71  70  96 SE6       29.95F
MARION +       LGT RAIN  70  70 100 NE7       29.96F
MT COMFORT *+  CLOUDY    73  72  94 CALM      29.96F
SHELBYVILLE    CLOUDY    75  70  84 CALM      29.94F
ZIONSVILLE +   CLOUDY    71  71  99 CALM      29.96R

$$

INZ033-034-041-042-049-050-058-059-271000-
EAST CENTRAL INDIANA

CITY           SKY/WX    TMP DP  RH WIND       PRES   REMARKS
MUNCIE         LGT RAIN  75  69  81 W9        29.96R
RICHMOND +     CLOUDY    68  66  94 S6        29.97F

$$

INZ060-061-067>069-081>083-085>088-271000-
SOUTHWEST INDIANA

CITY           SKY/WX    TMP DP  RH WIND       PRES   REMARKS
EVANSVILLE     CLOUDY    78  73  84 NW10      29.97R
HUNTINGBURG *+ LGT RAIN  75  74  96 CALM      29.96S

$$

INZ062-063-066-070>080-084-089>092-271000-
SOUTH CENTRAL AND SOUTHEAST INDIANA

CITY           SKY/WX    TMP DP  RH WIND       PRES   REMARKS
BEDFORD +      CLOUDY    73  70  88 CALM      29.95S
BLOOMINGTON    CLOUDY    74  71  91 W7        29.97R FOG
MADISON *+     CLOUDY    75  72  88 CALM      29.98F
NORTH VERNON + CLOUDY    72  70  94 S3        29.96S
SEYMOUR +      LGT RAIN  73  72  94 CALM      29.95S

$$





USA.gov is the U.S. government's official web portal to all federal, state and local government web resources and services.